ULTP (45605 NORAD) Tracking and Keplerian Element Data

This shows tracking and keplerian element data for the satellite.

Feedback or suggestion? Click here.




ElementValue
Catalog45605
NameULTP
Epoch Orbit769
Epoch Day184.86602764
Epoch Year2020
RAAN278.7643
Inclination51.6492
Eccentricity0.0007548
Argument of Perigee161.3401
Mean Anonmoly198.7857
Mean Motion15.28245727
Decay Rate7.36E-06
L11 45605U 20011D 20184.86602764 .00000736 00000-0 39100-4 0 9991
L22 45605 51.6492 278.7643 0007548 161.3401 198.7857 15.28245727 7696

Live tracking and technical data element details for ULTP (NORAD 45605). ULTP can be tracked NOW for your location showing map with azimuth and elevation plus other details from your city location.

Track the satellite on the map from your city or location and see movement details for azimuth, elevation, latitude, longitude, range, height, and movement on the map or in text.







IsCatalogInMostPopularTable: catalog: 45605, numindb: 9
Update: records affected: 1



GetName: 45605 ULTP

Hit Count: updated at: Fri, 03 Jul 2020 16:05:42 GMT